Weather History for Beatrice, NE

Change the Weather History Date:

Tuesday, February 16, 2010

  Actual Average Record
Temperature  
Mean Temperature 22 °F -  
Max Temperature 27 °F 39 °F 67 °F (1981)
Min Temperature 18 °F 16 °F -13 °F (1979)
Degree Days  
Heating Degree Days 42    
Moisture  
Dew Point 16 °F    
Average Humidity 79    
Maximum Humidity 87    
Minimum Humidity 66    
Precipitation  
Precipitation 0.00 in - - ()
Sea Level Pressure  
Sea Level Pressure 30.23 in    
Wind  
Wind Speed 15 mph (NNW)    
Max Wind Speed 18 mph    
Max Gust Speed 20 mph    
Visibility 10 miles    
Events      
Averages and records for this station are not official NWS values.
T = Trace of Precipitation, MM = Missing Value Source: NWS Daily Summary

Daily Weather History Graph

Daily Weather History Graph

Search for Another Location

Airport:

Trip Planner

Search our weather history database for the weather conditions in past years. The results will help you decide how hot, cold, wet, or windy it might be!

Date:

Astronomy

Feb. 16, 2010 Rise Set
Actual Time 7:19 AM CST 6:03 PM CST
Civil Twilight 6:51 AM CST 6:31 PM CST
Nautical Twilight 6:19 AM CST 7:03 PM CST
Astronomical Twilight 5:47 AM CST 7:34 PM CST
Moon 8:06 AM CST (2/16) 8:51 PM CST (2/16)
Length of Visible Light 11h 40m
Length of Day
10h 44m
Waxing Crescent, 6% of the Moon is Illuminated
Feb 16
Waxing Crescent
Feb 21
First Quarter
Feb 28
Full
Mar 7
Last Quarter
Mar 15
New

Hourly Weather History & Observations

Time (CST) Temp. Windchill Dew Point Humidity Pressure Visibility Wind Dir Wind Speed Gust Speed Precip Events Conditions
12:10 AM 18.9 °F 3.8 °F 9.5 °F 67% 30.18 in 10.0 mi NNW 17.3 mph - N/A   Overcast
12:30 AM 18.5 °F 3.8 °F 9.5 °F 68% 30.18 in 10.0 mi NNW 16.1 mph - N/A   Overcast
12:50 AM 18.1 °F 4.4 °F 10.2 °F 71% 30.18 in 10.0 mi NNW 13.8 mph - N/A   Overcast
1:10 AM 18.3 °F 4.1 °F 10.0 °F 70% 30.19 in 10.0 mi NNW 15.0 mph 19.6 mph N/A   Overcast
1:30 AM 18.3 °F 3.6 °F 10.6 °F 72% 30.19 in 10.0 mi NNW 16.1 mph - N/A   Overcast
1:50 AM 18.5 °F 4.3 °F 11.1 °F 73% 30.19 in 10.0 mi NNW 15.0 mph 19.6 mph N/A   Overcast
2:10 AM 18.9 °F 5.9 °F 11.3 °F 72% 30.20 in 10.0 mi NNW 12.7 mph - N/A   Overcast
2:30 AM 18.9 °F 5.3 °F 12.6 °F 76% 30.19 in 10.0 mi NNW 13.8 mph - N/A   Overcast
2:50 AM 19.0 °F 5.0 °F 12.9 °F 77% 30.19 in 10.0 mi NNW 15.0 mph - N/A   Overcast
3:10 AM 19.0 °F 5.0 °F 13.6 °F 79% 30.19 in 10.0 mi NNW 15.0 mph - N/A   Overcast
3:30 AM 18.9 °F 4.3 °F 13.8 °F 81% 30.19 in 10.0 mi NNW 16.1 mph - N/A   Overcast
3:50 AM 18.5 °F 3.3 °F 14.2 °F 83% 30.19 in 10.0 mi NNW 17.3 mph - N/A   Overcast
4:10 AM 18.5 °F 3.8 °F 14.7 °F 85% 30.20 in 10.0 mi NNW 16.1 mph - N/A   Overcast
4:30 AM 18.3 °F 3.6 °F 14.7 °F 86% 30.20 in 10.0 mi NNW 16.1 mph - N/A   Overcast
4:50 AM 18.3 °F 3.6 °F 14.4 °F 85% 30.20 in 10.0 mi NNW 16.1 mph - N/A   Overcast
5:10 AM 18.5 °F 3.8 °F 14.5 °F 85% 30.20 in 10.0 mi NNW 16.1 mph - N/A   Overcast
5:30 AM 18.5 °F 3.8 °F 14.4 °F 84% 30.21 in 10.0 mi NNW 16.1 mph - N/A   Overcast
5:50 AM 18.5 °F 2.9 °F 14.5 °F 85% 30.21 in 10.0 mi NNW 18.4 mph - N/A   Overcast
6:10 AM 18.5 °F 3.3 °F 14.9 °F 86% 30.22 in 10.0 mi NNW 17.3 mph - N/A   Overcast
6:30 AM 18.5 °F 4.9 °F 15.3 °F 87% 30.23 in 10.0 mi NNW 13.8 mph - N/A   Overcast
6:50 AM 18.5 °F 4.3 °F 15.3 °F 87% 30.23 in 10.0 mi NNW 15.0 mph - N/A   Overcast
7:10 AM 18.9 °F 5.3 °F 15.3 °F 86% 30.23 in 10.0 mi NNW 13.8 mph - N/A   Overcast
7:30 AM 19.0 °F 6.8 °F 15.3 °F 85% 30.23 in 10.0 mi NNW 11.5 mph - N/A   Overcast
7:50 AM 19.0 °F 6.8 °F 15.3 °F 85% 30.24 in 10.0 mi NNW 11.5 mph - N/A   Overcast
8:10 AM 19.2 °F 6.4 °F 15.4 °F 85% 30.24 in 10.0 mi NNW 12.7 mph - N/A   Overcast
8:30 AM 19.4 °F 6.0 °F 16.0 °F 87% 30.25 in 10.0 mi NNW 13.8 mph - N/A   Overcast
8:50 AM 19.8 °F 5.9 °F 16.5 °F 87% 30.26 in 10.0 mi NNW 15.0 mph - N/A   Overcast
9:10 AM 19.9 °F 5.2 °F 16.7 °F 87% 30.27 in 10.0 mi NNW 17.3 mph - N/A   Overcast
9:30 AM 20.7 °F 8.2 °F 17.4 °F 87% 30.27 in 10.0 mi NNW 12.7 mph - N/A   Overcast
9:50 AM 21.0 °F 8.1 °F 17.6 °F 87% 30.27 in 10.0 mi NNW 13.8 mph - N/A   Overcast
10:10 AM 21.6 °F 8.8 °F 18.3 °F 87% 30.27 in 10.0 mi NW 13.8 mph - N/A   Overcast
10:30 AM 21.9 °F 7.8 °F 18.5 °F 87% 30.27 in 10.0 mi NNW 17.3 mph - N/A   Overcast
10:50 AM 22.1 °F 8.9 °F 18.5 °F 86% 30.27 in 10.0 mi NNW 15.0 mph - N/A   Overcast
11:10 AM 22.8 °F 10.4 °F 19.2 °F 86% 30.27 in 10.0 mi NNW 13.8 mph - N/A   Overcast
11:30 AM 23.7 °F 12.1 °F 19.8 °F 85% 30.27 in 10.0 mi NNW 12.7 mph - N/A   Overcast
11:50 AM 24.1 °F 12.5 °F 19.8 °F 84% 30.27 in 10.0 mi NW 12.7 mph - N/A   Overcast
12:10 PM 24.6 °F 12.2 °F 19.9 °F 82% 30.26 in 10.0 mi NW 15.0 mph - N/A   Scattered Clouds
12:30 PM 24.8 °F 12.9 °F 19.8 °F 81% 30.26 in 10.0 mi NNW 13.8 mph - N/A   Scattered Clouds
12:50 PM 24.8 °F 12.4 °F 19.6 °F 81% 30.25 in 10.0 mi NW 15.0 mph - N/A   Scattered Clouds
1:10 PM 25.2 °F 12.9 °F 19.2 °F 78% 30.25 in 10.0 mi NW 15.0 mph - N/A   Scattered Clouds
1:30 PM 25.5 °F 13.3 °F 19.4 °F 78% 30.24 in 10.0 mi NW 15.0 mph - N/A   Clear
1:50 PM 25.5 °F 13.3 °F 19.2 °F 77% 30.24 in 10.0 mi NW 15.0 mph - N/A   Scattered Clouds
2:10 PM 26.1 °F 14.0 °F 19.9 °F 78% 30.23 in 10.0 mi NNW 15.0 mph - N/A   Mostly Cloudy
2:30 PM 26.6 °F 15.2 °F 17.2 °F 68% 30.23 in 10.0 mi NNW 13.8 mph 19.6 mph N/A   Mostly Cloudy
2:50 PM 26.6 °F 15.7 °F 19.2 °F 74% 30.23 in 10.0 mi NNW 12.7 mph - N/A   Scattered Clouds
3:10 PM 27.3 °F 14.8 °F 18.1 °F 68% 30.23 in 10.0 mi NNW 17.3 mph - N/A   Scattered Clouds
3:30 PM 27.3 °F 15.6 °F 18.1 °F 68% 30.23 in 10.0 mi NNW 15.0 mph - N/A   Clear
3:50 PM 27.3 °F 16.1 °F 18.1 °F 68% 30.23 in 10.0 mi NNW 13.8 mph - N/A   Clear
4:10 PM 27.3 °F 17.7 °F 18.7 °F 70% 30.22 in 10.0 mi NNW 10.4 mph - N/A   Clear
4:30 PM 27.5 °F 18.6 °F 17.4 °F 66% 30.22 in 10.0 mi NNW 9.2 mph - N/A   Clear
4:50 PM 27.1 °F 17.5 °F 17.2 °F 66% 30.22 in 10.0 mi NNW 10.4 mph - N/A   Clear
5:10 PM 26.6 °F 18.2 °F 16.7 °F 66% 30.22 in 10.0 mi NNW 8.1 mph - N/A   Clear
5:30 PM 25.7 °F 16.4 °F 17.1 °F 70% 30.22 in 10.0 mi NNW 9.2 mph - N/A   Clear
5:50 PM 24.6 °F 15.8 °F 17.4 °F 74% 30.22 in 10.0 mi NW 8.1 mph - N/A   Clear
6:10 PM 23.4 °F 15.2 °F 16.7 °F 76% 30.22 in 10.0 mi NW 6.9 mph - N/A   Clear
6:30 PM 22.5 °F 15.1 °F 17.4 °F 81% 30.22 in 10.0 mi NW 5.8 mph - N/A   Clear
6:50 PM 21.2 °F - 16.7 °F 83% 30.22 in 10.0 mi Calm Calm - N/A   Clear
7:10 PM 21.2 °F - 16.0 °F 80% 30.22 in 10.0 mi Calm Calm - N/A   Clear
7:30 PM 19.6 °F - 14.7 °F 81% 30.21 in 10.0 mi Calm Calm - N/A   Clear
7:50 PM 18.3 °F - 13.8 °F 83% 30.21 in 10.0 mi Calm Calm - N/A   Clear
8:10 PM 18.3 °F - 14.0 °F 83% 30.21 in 10.0 mi Calm Calm - N/A   Clear
8:30 PM 18.5 °F 8.4 °F 13.5 °F 81% 30.21 in 10.0 mi NW 8.1 mph - N/A   Clear
8:50 PM 17.1 °F - 12.6 °F 82% 30.21 in 10.0 mi Calm Calm - N/A   Clear
9:10 PM 16.7 °F - 12.2 °F 82% 30.21 in 10.0 mi Calm Calm - N/A   Clear
9:30 PM 17.2 °F - 12.2 °F 81% 30.22 in 10.0 mi Calm Calm - N/A   Clear
9:50 PM 16.7 °F - 12.2 °F 82% 30.22 in 10.0 mi Calm Calm - N/A   Clear
10:10 PM 16.7 °F - 11.8 °F 81% 30.22 in 10.0 mi Calm Calm - N/A   Clear
10:30 PM 16.7 °F - 12.0 °F 82% 30.22 in 10.0 mi Calm Calm - N/A   Clear
10:50 PM 16.5 °F - 11.7 °F 81% 30.22 in 10.0 mi Calm Calm - N/A   Clear
11:10 PM 16.5 °F - 11.3 °F 80% 30.22 in 10.0 mi Calm Calm - N/A   Clear
11:30 PM 16.2 °F - 10.9 °F 80% 30.22 in 10.0 mi Calm Calm - N/A   Clear
11:50 PM 15.8 °F - 10.9 °F 81% 30.22 in 10.0 mi Calm Calm - N/A   Clear